QFA120 YSSY-YMML

Flight info

Callsign QFA120
Flight time N/A
Altitude 40000
Route MARUB7/34R WOL H65 LEECE Q29 ML DCT
Aircraft A359/H-V/N

Departure

Time 2026-04-26 09:52
Airport Sydney Kingsford Smith International Airport (YSSY)

Arrival

Time N/A
Airport Melbourne Airport (YMML)
Time Latitude Longitude Altitude Speed Heading
2026-04-26 09:17 -33.93924 151.16991 30 ft 0 kts 254°
2026-04-26 09:33 -33.93923 151.16995 30 ft 0 kts 254°
2026-04-26 09:33 -33.93922 151.17001 30 ft 0 kts 254°
2026-04-26 09:35 -33.93922 151.17000 30 ft 0 kts 254°
2026-04-26 09:37 -33.93922 151.16998 30 ft 0 kts 254°
2026-04-26 09:38 -33.93922 151.17000 30 ft 0 kts 254°
2026-04-26 09:38 -33.93922 151.16998 30 ft 0 kts 254°
2026-04-26 09:41 -33.93921 151.17004 30 ft 2 kts 253°
2026-04-26 09:41 -33.93916 151.17023 30 ft 2 kts 253°
2026-04-26 09:41 -33.93912 151.17040 29 ft 2 kts 254°
2026-04-26 09:41 -33.93910 151.17052 29 ft 2 kts 253°
2026-04-26 09:42 -33.93902 151.17068 29 ft 2 kts 221°
2026-04-26 09:42 -33.93889 151.17078 28 ft 2 kts 194°
2026-04-26 09:42 -33.93875 151.17079 28 ft 1 kts 169°
2026-04-26 09:42 -33.93869 151.17078 28 ft 0 kts 167°
2026-04-26 09:46 -33.93914 151.17090 28 ft 16 kts 167°
2026-04-26 09:47 -33.93994 151.17137 27 ft 1 kts 107°
2026-04-26 09:47 -33.93993 151.17148 27 ft 5 kts 88°
2026-04-26 09:47 -33.94004 151.17201 26 ft 8 kts 122°
2026-04-26 09:47 -33.94053 151.17242 25 ft 9 kts 162°
2026-04-26 09:48 -33.94134 151.17270 25 ft 16 kts 165°
2026-04-26 09:48 -33.94276 151.17311 26 ft 23 kts 166°
2026-04-26 09:48 -33.94465 151.17354 27 ft 29 kts 169°
2026-04-26 09:48 -33.94680 151.17410 26 ft 32 kts 166°
2026-04-26 09:49 -33.94911 151.17470 23 ft 35 kts 168°
2026-04-26 09:49 -33.95164 151.17546 21 ft 38 kts 163°
2026-04-26 09:49 -33.95441 151.17615 20 ft 41 kts 169°
2026-04-26 09:49 -33.95759 151.17694 20 ft 42 kts 167°
2026-04-26 09:50 -33.96058 151.17770 20 ft 44 kts 167°
2026-04-26 09:50 -33.96343 151.17845 20 ft 29 kts 168°
2026-04-26 09:50 -33.96414 151.17883 19 ft 0 kts 113°
2026-04-26 09:51 -33.96425 151.17920 20 ft 9 kts 106°
2026-04-26 09:51 -33.96407 151.18042 20 ft 19 kts 41°
2026-04-26 09:51 -33.96269 151.18043 20 ft 20 kts 348°
2026-04-26 09:52 -33.96108 151.17996 20 ft 41 kts 344°
2026-04-26 09:52 -33.94400 151.17528 420 ft 173 kts 349°
2026-04-26 09:52 -33.93096 151.17189 1012 ft 207 kts 350°
2026-04-26 09:53 -33.91629 151.16811 2077 ft 217 kts 349°
2026-04-26 09:53 -33.90207 151.16025 2872 ft 239 kts 318°
2026-04-26 09:53 -33.89201 151.14323 3780 ft 256 kts 302°
2026-04-26 09:53 -33.88248 151.12473 4430 ft 265 kts 303°
2026-04-26 09:54 -33.87257 151.10584 4854 ft 268 kts 303°
2026-04-26 09:54 -33.86253 151.08682 4975 ft 269 kts 303°
2026-04-26 09:54 -33.85232 151.06761 4995 ft 268 kts 303°
2026-04-26 09:54 -33.84226 151.04874 4997 ft 268 kts 303°
2026-04-26 09:55 -33.83213 151.02966 5009 ft 268 kts 301°
2026-04-26 09:55 -33.82485 151.00902 5006 ft 270 kts 285°
2026-04-26 09:55 -33.82285 150.98630 4995 ft 271 kts 268°
2026-04-26 09:55 -33.82641 150.96365 4989 ft 272 kts 251°
2026-04-26 09:56 -33.83514 150.94334 5002 ft 273 kts 234°
2026-04-26 09:56 -33.84845 150.92674 4997 ft 275 kts 217°
2026-04-26 09:56 -33.86525 150.91538 4984 ft 275 kts 200°